Martinsburg, WV

3:22 AM EST on February 08, 2016 (GMT -0500)
Eastern W Va Regional-Shepherd

Weather History for KMRB - March, 2014

Change the Weather History Date:

Sunday, March 23, 2014

  Actual Average Record
Temperature  
Mean Temperature 36 °F 44 °F  
Max Temperature 45 °F 55 °F 86 °F (1938)
Min Temperature 27 °F 34 °F 17 °F (1934)
Degree Days  
Heating Degree Days 29 21  
Month to date heating degree days 632 562  
Since 1 July heating degree days 4725 4518  
Cooling Degree Days 0 0  
Month to date cooling degree days 0 0  
Year to date cooling degree days 0 0  
Moisture  
Dew Point 18 °F    
Average Humidity 42    
Maximum Humidity 59    
Minimum Humidity 25    
Precipitation  
Precipitation 0.00 in 0.12 in 1.73 in (2005)
Month to date precipitation 0.61 2.53  
Year to date precipitation 4.36 7.31  
Sea Level Pressure  
Sea Level Pressure 30.10 in    
Wind  
Wind Speed 10 mph (NW)    
Max Wind Speed 22 mph    
Max Gust Speed 28 mph    
Visibility 10 miles    
Events      
T = Trace of Precipitation, MM = Missing Value Source: NWS Daily Summary

Daily Weather History Graph

Daily Weather History Graph

Search for Another Location

Airport or City:

Trip Planner

Search our weather history database for the weather conditions in past years. The results will help you decide how hot, cold, wet, or windy it might be!

Date:

Astronomy

Mar. 23, 2014 Rise Set
Actual Time 7:10 AM EDT 7:26 PM EDT
Civil Twilight 6:43 AM EDT 7:53 PM EDT
Nautical Twilight 6:12 AM EDT 8:25 PM EDT
Astronomical Twilight 5:40 AM EDT 8:57 PM EDT
Moon 1:40 AM EDT (3/23) 11:51 AM EDT (3/23)
Length of Visible Light 13h 09m
Length of Day
12h 16m
Waning Gibbous, 55% of the Moon is Illuminated
Mar 23
Waning Gibbous
Mar 23
Last Quarter
Mar 30
New
Apr 7
First Quarter
Apr 15
Full

Hourly Weather History & Observations

Time (EDT) Temp. Windchill Dew Point Humidity Pressure Visibility Wind Dir Wind Speed Gust Speed Precip Events Conditions
12:53 AM 44.1 °F 40.1 °F 27.0 °F 51% 30.05 in 10.0 mi North 6.9 mph - N/A   Clear
1:53 AM 41.0 °F 34.7 °F 26.1 °F 55% 30.07 in 10.0 mi NNE 10.4 mph - N/A   Clear
2:53 AM 41.0 °F 36.4 °F 25.0 °F 53% 30.07 in 10.0 mi North 6.9 mph - N/A   Clear
3:53 AM 39.0 °F 34.0 °F 25.0 °F 57% 30.08 in 10.0 mi North 6.9 mph - N/A   Clear
4:53 AM 37.0 °F 33.3 °F 24.1 °F 59% 30.07 in 10.0 mi North 4.6 mph - N/A   Clear
5:53 AM 37.0 °F - 24.1 °F 59% 30.08 in 10.0 mi Calm Calm - N/A   Clear
6:53 AM 37.0 °F - 24.1 °F 59% 30.10 in 10.0 mi Calm Calm - N/A   Clear
7:53 AM 39.0 °F 32.3 °F 23.0 °F 53% 30.12 in 10.0 mi NW 10.4 mph - N/A   Clear
8:53 AM 39.9 °F 35.8 °F 21.9 °F 49% 30.12 in 10.0 mi NW 5.8 mph - N/A   Clear
9:53 AM 41.0 °F 34.7 °F 21.9 °F 47% 30.12 in 10.0 mi WNW 10.4 mph - N/A   Mostly Cloudy
10:53 AM 42.1 °F 35.7 °F 23.0 °F 47% 30.09 in 10.0 mi North 11.5 mph - N/A   Mostly Cloudy
11:53 AM 42.1 °F 37.1 °F 21.9 °F 45% 30.12 in 10.0 mi NNW 8.1 mph - N/A   Overcast
12:53 PM 42.1 °F 39.2 °F 21.9 °F 45% 30.10 in 10.0 mi Variable 4.6 mph - N/A   Overcast
1:53 PM 43.0 °F 36.8 °F 21.9 °F 43% 30.08 in 10.0 mi NW 11.5 mph - N/A   Overcast
2:53 PM 43.0 °F 35.1 °F 18.0 °F 37% 30.06 in 10.0 mi West 17.3 mph 24.2 mph N/A   Overcast
3:53 PM 43.0 °F 35.7 °F 18.0 °F 37% 30.06 in 10.0 mi West 15.0 mph - N/A   Overcast
4:53 PM 44.1 °F 37.7 °F 14.0 °F 30% 30.04 in 10.0 mi WNW 12.7 mph - N/A   Scattered Clouds
5:53 PM 43.0 °F 35.1 °F 12.0 °F 28% 30.05 in 10.0 mi NW 17.3 mph - N/A   Overcast
6:53 PM 41.0 °F 32.8 °F 9.0 °F 27% 30.07 in 10.0 mi WNW 16.1 mph 25.3 mph N/A   Clear
7:53 PM 37.0 °F 27.7 °F 10.0 °F 33% 30.10 in 10.0 mi WNW 16.1 mph - N/A   Clear
8:53 PM 35.1 °F 24.8 °F 7.0 °F 31% 30.14 in 10.0 mi NW 17.3 mph 27.6 mph N/A   Clear
9:53 PM 33.1 °F 23.9 °F 6.1 °F 32% 30.18 in 10.0 mi NNW 12.7 mph 19.6 mph N/A   Clear
10:53 PM 30.9 °F 21.2 °F 7.0 °F 37% 30.21 in 10.0 mi NNW 12.7 mph 20.7 mph N/A   Clear
11:53 PM 30.0 °F 20.0 °F 6.1 °F 36% 30.23 in 10.0 mi NNW 12.7 mph - N/A   Clear